Station WPTW1 - 9441102 - Westport, WA Image indicating link to RSS feed of recent meteorological observations for station WPTW1


Conditions at WPTW1 as of
(8:36 pm PDT on 07/18/2024)
0336 GMT on 07/19/2024:
     

Click on the graph icon in the table below to see a time series plot of the last five days of that observation.

5-day plot - Wind Direction Wind Direction (WDIR):SSW ( 210 deg true )
5-day plot - Wind Speed Wind Speed (WSPD): 7.0 kts
5-day plot - Wind Gust Wind Gust (GST): 8.0 kts
5-day plot - Atmospheric Pressure Atmospheric Pressure (PRES):30.12 in
5-day plot - Air Temperature Air Temperature (ATMP): 54.3 °F
5-day plot - Water Temperature Water Temperature (WTMP): 54.0 °F
5-day plot - Wind Speed at 10 Meters Wind Speed at 10 meters (WSPD10M): 5.8 kts
5-day plot - Wind Speed at 20 Meters Wind Speed at 20 meters (WSPD20M): 5.8 kts
5-day plot -  Wind Speed, Wind Gust and Atmospheric Pressure Combined plot of Wind Speed, Gust, and Air Pressure
NOS Water Level Observation Network Water Level
Previous observations
TIME
(PDT)
5-day plot - Wind Direction
WDIR
 
5-day plot - Wind Speed
WSPD
kts
5-day plot - Wind Gust
GST
kts
5-day plot - Wave Height
WVHT
ft
5-day plot - Dominant Wave Period
DPD
sec
5-day plot - Average Wave Period
APD
sec
5-day plot - Mean Wave Direction
MWD
 
5-day plot - Atmospheric Pressure
PRES
in
5-day plot - Pressure Tendency
PTDY
in
5-day plot - Air Temperature
ATMP
°F
5-day plot - Water Temperature
WTMP
°F
5-day plot - Dew Point
DEWP
°F
5-day plot - Salinity
SAL
psu
5-day plot - Visibility
VIS
nmi
5-day plot - Tide (above MLLW)
TIDE
ft
2024-07-18 08:30 pmSSW 6.0 7.0----30.12- 54.3 54.0----
2024-07-18 08:24 pmSSW 6.0 8.0----30.12- 54.3 54.1----
2024-07-18 08:18 pmSSW 6.0 7.0----30.12- 54.3 54.3----
2024-07-18 08:12 pmSSW 6.0 8.0----30.12- 54.3 54.5----
2024-07-18 08:06 pmSSW 6.0 8.0----30.12- 54.3 54.7----
2024-07-18 08:00 pm SW 6.0 7.0----30.12-0.01 54.5 54.5----
2024-07-18 07:54 pm SW 7.0 8.0----30.12- 54.9 54.7----
2024-07-18 07:48 pmSSW 6.0 7.0----30.12- 54.9 54.7----
2024-07-18 07:42 pmSSW 4.1 6.0----30.12- 54.9 54.7----
2024-07-18 07:36 pmSSW 6.0 8.0----30.12- 54.7 54.5----
2024-07-18 07:30 pmSSW 6.0 7.0----30.11- 54.9 54.3----
2024-07-18 07:24 pm SW 6.0 8.0----30.12- 55.4 54.3----
2024-07-18 07:18 pm SW 6.0 8.0----30.12- 55.6 54.1----
2024-07-18 07:12 pm SW 6.0 8.0----30.12- 55.6 54.1----
2024-07-18 07:06 pm S 5.1 8.0----30.12- 55.9 54.1----
2024-07-18 07:00 pmSSW 5.1 8.0----30.12-0.01 56.3 54.3----
2024-07-18 06:54 pm SW 6.0 8.0----30.12- 56.7 54.5----
2024-07-18 06:48 pm SW 5.1 8.0----30.12- 56.8 54.5----
2024-07-18 06:42 pmSSW 6.0 8.0----30.12- 56.7 54.3----
2024-07-18 06:36 pm SW 6.0 8.0----30.12- 57.2 54.5----
2024-07-18 06:30 pm SW 5.1 9.9----30.12- 57.6 54.5----
2024-07-18 06:24 pm SW 7.0 11.1----30.12- 58.1 54.9----
2024-07-18 06:18 pm SW 7.0 9.9----30.12- 58.3 54.7----
2024-07-18 06:12 pm SW 7.0 9.9----30.12- 58.5 54.9----
2024-07-18 06:06 pmSSW 8.0 9.9----30.12- 58.3 54.9----
2024-07-18 06:00 pmSSW 7.0 11.1----30.12-0.01 59.2 55.0----
2024-07-18 05:54 pmSSW 8.0 11.1----30.12- 59.0 55.0----
2024-07-18 05:48 pm SW 7.0 9.9----30.13- 59.2 55.0----
2024-07-18 05:42 pmSSW 7.0 11.1----30.13- 59.2 55.0----
2024-07-18 05:36 pmSSW 8.0 11.1----30.13- 59.4 55.0----
2024-07-18 05:30 pmSSW 6.0 12.0----30.12- 59.7 55.0----
2024-07-18 05:24 pm SW 8.9 11.1----30.13- 59.0 55.2----
2024-07-18 05:18 pmSSW 8.0 12.0----30.13- 59.2 55.2----
2024-07-18 05:12 pmSSW 9.9 13.0----30.13- 59.0 55.4----
2024-07-18 05:06 pm SW 11.1 13.0----30.13- 58.5 55.4----
2024-07-18 05:00 pmSSW 9.9 14.0----30.13+0.00 59.0 55.4----
2024-07-18 04:54 pm SW 8.9 13.0----30.13- 59.5 55.6----
2024-07-18 04:48 pmSSW 7.0 9.9----30.13- 60.1 55.6----
2024-07-18 04:42 pmSSW 8.0 12.0----30.13- 59.9 55.6----
2024-07-18 04:36 pm SW 7.0 9.9----30.13- 59.9 55.6----
2024-07-18 04:30 pmSSW 6.0 11.1----30.13- 60.8 55.6----
2024-07-18 04:24 pmSSW 7.0 11.1----30.13- 59.9 55.4----
2024-07-18 04:18 pmSSW 5.1 13.0----30.13- 60.4 55.4----
2024-07-18 04:12 pm S 8.9 11.1----30.13- 59.5 55.2----
2024-07-18 04:06 pmSSW 5.1 9.9----30.13- 60.3 55.2----
2024-07-18 04:00 pmSSW 7.0 11.1----30.13+0.00 60.3 55.4----
2024-07-18 03:54 pm S 8.0 13.0----30.13- 59.2 55.4----
2024-07-18 03:48 pmSSW 8.9 11.1----30.13- 58.6 55.2----
2024-07-18 03:42 pmSSW 6.0 9.9----30.13- 60.1 55.2----
2024-07-18 03:36 pmSSW 6.0 12.0----30.13- 59.9 55.0----
2024-07-18 03:30 pmSSW 8.9 12.0----30.13- 58.5 55.0----
2024-07-18 03:24 pmSSW 8.9 13.0----30.13- 59.2 55.0----
2024-07-18 03:18 pmSSW 8.0 12.0----30.13- 59.5 54.9----
2024-07-18 03:12 pm SW 6.0 12.0----30.14- 60.4 54.9----
2024-07-18 03:06 pm SW 9.9 13.0----30.13- 58.6 54.9----
2024-07-18 03:00 pmSSW 7.0 12.0----30.13+0.00 60.1 54.9----
2024-07-18 02:54 pm SW 8.9 12.0----30.13- 59.2 54.5----
2024-07-18 02:48 pm SW 8.9 13.0----30.13- 59.0 54.3----
2024-07-18 02:42 pmSSW 8.0 12.0----30.13- 59.4 54.1----
2024-07-18 02:36 pm SW 8.0 12.0----30.13- 59.7 54.1----
2024-07-18 02:30 pmSSW 8.9 13.0----30.13- 58.8 54.0----
2024-07-18 02:24 pmSSW 8.9 13.0----30.13- 59.4 54.1----
2024-07-18 02:18 pmSSW 8.9 14.0----30.13- 59.2 54.0----
2024-07-18 02:12 pmSSW 9.9 12.0----30.13- 58.6 54.0----
2024-07-18 02:06 pm SW 8.9 13.0----30.13- 59.2 53.8----
2024-07-18 02:00 pmSSW 8.0 12.0----30.13+0.01 59.4 53.8----
2024-07-18 01:54 pm SW 9.9 13.0----30.14- 58.6 53.6----
2024-07-18 01:48 pmSSW 8.9 13.0----30.13- 59.4 53.6----
2024-07-18 01:42 pmSSW 8.0 13.0----30.13- 59.4 53.6----
2024-07-18 01:36 pmSSW 7.0 12.0----30.13- 59.4 53.8----
2024-07-18 01:30 pmSSW 11.1 13.0----30.13- 58.3 53.6----
2024-07-18 01:24 pmSSW 9.9 13.0----30.13- 58.8 53.6----
2024-07-18 01:18 pm SW 9.9 14.0----30.13- 59.0 53.6----
2024-07-18 01:12 pmSSW 8.0 13.0----30.13- 59.5 53.6----
2024-07-18 01:06 pmSSW 7.0 9.9----30.13- 60.1 53.6----
2024-07-18 01:00 pm S 8.0 12.0----30.13+0.01 59.4 53.8----
2024-07-18 12:54 pm S 8.9 12.0----30.13- 59.0 53.8----
2024-07-18 12:48 pm S 9.9 14.0----30.13- 58.3 53.8----
2024-07-18 12:42 pmSSW 8.0 15.0----30.13- 58.5 53.6----
2024-07-18 12:36 pmSSW 8.9 14.0----30.13- 58.8 53.6----
2024-07-18 12:30 pmSSW 8.0 13.0----30.13- 59.2 53.8----
2024-07-18 12:24 pmSSW 8.0 13.0----30.13- 59.4 53.8----
2024-07-18 12:18 pmSSW 9.9 14.0----30.13- 58.3 54.0----
2024-07-18 12:12 pmSSW 8.9 14.0----30.13- 58.3 53.8----
2024-07-18 12:06 pmSSW 12.0 14.0----30.13- 57.6 53.8----
2024-07-18 12:00 pmSSW 8.9 13.0----30.13+0.01 57.9 54.0----
2024-07-18 11:54 amSSW 8.9 13.0----30.13- 57.9 54.3----
2024-07-18 11:48 amSSW 8.9 12.0----30.13- 58.1 54.5----
2024-07-18 11:42 amSSW 8.9 12.0----30.12- 57.7 54.3----
2024-07-18 11:36 amSSW 8.9 12.0----30.12- 57.2 54.9----
2024-07-18 11:30 amSSW 9.9 12.0----30.12- 57.0 55.4----
2024-07-18 11:24 amSSW 8.0 13.0----30.12- 56.8 55.9----
2024-07-18 11:18 am S 7.0 13.0----30.13- 56.7 56.3----
2024-07-18 11:12 amSSW 8.9 13.0----30.13- 56.7 56.5----
2024-07-18 11:06 amSSW 8.0 12.0----30.13- 56.8 56.5----
2024-07-18 11:00 amSSW 8.9 13.0----30.12+0.01 56.7 56.5----
2024-07-18 10:54 amSSW 7.0 13.0----30.12- 57.0 56.5----
2024-07-18 10:48 amSSW 9.9 13.0----30.12- 56.8 56.7----
2024-07-18 10:42 amSSW 8.9 13.0----30.12- 57.0 56.5----
2024-07-18 10:36 am S 7.0 15.0----30.12- 57.0 56.5----
2024-07-18 10:30 amSSW 8.0 11.1----30.12- 57.2 56.5----
2024-07-18 10:24 am S 7.0 13.0----30.12- 57.2 56.5----
2024-07-18 10:18 amSSW 8.0 11.1----30.12- 57.0 56.3----
2024-07-18 10:12 am S 8.9 13.0----30.12- 57.0 56.3----
2024-07-18 10:06 am S 8.9 13.0----30.12- 56.8 56.3----
2024-07-18 10:00 am S 5.1 9.9----30.12+0.01 57.2 56.1----
2024-07-18 09:54 am S 7.0 11.1----30.12- 57.0 56.1----
2024-07-18 09:48 am S 8.0 13.0----30.12- 56.8 56.1----
2024-07-18 09:42 am S 8.0 13.0----30.12- 56.8 56.1----
2024-07-18 09:36 am S 8.0 13.0----30.12- 56.7 55.9----
2024-07-18 09:30 am S 8.9 12.0----30.12- 56.7 55.9----
2024-07-18 09:24 am S 8.0 12.0----30.12- 56.7 55.9----
2024-07-18 09:18 am S 7.0 9.9----30.12- 56.7 55.8----
2024-07-18 09:12 am S 8.0 14.0----30.12- 56.5 55.8----
2024-07-18 09:06 am S 8.0 12.0----30.12- 56.7 55.8----
2024-07-18 09:00 am S 7.0 11.1----30.12+0.03 56.5 55.8----
2024-07-18 08:54 am S 7.0 9.9----30.12- 56.7 55.6----
2024-07-18 08:48 am S 8.9 12.0----30.12- 56.3 55.4----
2024-07-18 08:42 am S 8.0 12.0----30.11- 56.1 55.4----
2024-07-18 08:36 am S 7.0 11.1----30.11- 55.9 55.4----
2024-07-18 08:30 am S 8.9 11.1----30.11- 55.9 55.4----
2024-07-18 08:24 am S 6.0 8.9----30.11- 55.8 55.4----
2024-07-18 08:18 am S 6.0 9.9----30.11- 55.8 55.4----
2024-07-18 08:12 am S 6.0 11.1----30.11- 55.4 55.4----
2024-07-18 08:06 am S 5.1 9.9----30.11- 55.4 55.4----
2024-07-18 08:00 am S 6.0 9.9----30.11+0.02 55.2 55.4----
2024-07-18 07:54 am S 7.0 11.1----30.11- 55.2 55.2----
2024-07-18 07:48 am S 7.0 9.9----30.11- 55.2 55.0----
2024-07-18 07:42 am S 7.0 12.0----30.11- 55.0 54.9----
2024-07-18 07:36 am S 5.1 9.9----30.11- 55.2 54.9----
2024-07-18 07:30 am S 7.0 9.9----30.11- 55.2 54.9----
2024-07-18 07:24 am S 7.0 11.1----30.11- 55.0 54.9----
2024-07-18 07:18 am S 7.0 8.9----30.11- 54.9 54.7----
2024-07-18 07:12 am S 4.1 6.0----30.11- 55.2 54.7----
2024-07-18 07:06 am S 4.1 6.0----30.11- 55.0 54.9----
2024-07-18 07:00 amSSE 4.1 7.0----30.11+0.01 54.9 54.9----
2024-07-18 06:54 am S 5.1 8.0----30.10- 54.9 55.0----
2024-07-18 06:48 am S 4.1 6.0----30.10- 54.7 55.2----
2024-07-18 06:42 am S 5.1 6.0----30.10- 54.5 55.4----
2024-07-18 06:36 am S 2.9 6.0----30.10- 54.3 55.4----
2024-07-18 06:30 am S 4.1 6.0----30.10- 54.1 55.6----
2024-07-18 06:24 am S 1.9 4.1----30.10- 54.1 55.8----
2024-07-18 06:18 am S 2.9 5.1----30.10- 54.1 55.8----
2024-07-18 06:12 am S 2.9 6.0----30.09- 54.1 55.8----
2024-07-18 06:06 am S 1.9 5.1----30.09- 54.0 55.8----
2024-07-18 06:00 am S 2.9 4.1----30.09+0.00 54.0 55.8----
2024-07-18 05:54 amSSE 2.9 5.1----30.09- 54.0 55.8----
2024-07-18 05:48 am S 2.9 6.0----30.09- 53.8 55.8----
2024-07-18 05:42 am S 1.9 5.1----30.09- 53.8 55.8----
2024-07-18 05:36 am S 4.1 5.1----30.09- 53.8 55.6----
2024-07-18 05:30 am S 4.1 7.0----30.09- 53.8 55.6----
2024-07-18 05:24 am S 4.1 7.0----30.09- 53.8 55.6----
2024-07-18 05:18 am S 4.1 7.0----30.09- 54.0 55.6----
2024-07-18 05:12 am S 4.1 7.0----30.09- 54.0 55.6----
2024-07-18 05:06 am S 4.1 6.0----30.09- 54.0 55.4----
2024-07-18 05:00 am S 5.1 8.0----30.09+0.00 54.1 55.4----
2024-07-18 04:54 am S 2.9 7.0----30.09- 54.1 55.4----
2024-07-18 04:48 am S 5.1 8.0----30.09- 54.1 55.4----
2024-07-18 04:42 am S 4.1 8.0----30.09- 54.1 55.2----
2024-07-18 04:36 am S 6.0 9.9----30.09- 54.3 55.2----
2024-07-18 04:30 am S 5.1 8.9----30.09- 54.5 55.2----
2024-07-18 04:24 am S 7.0 8.9----30.09- 54.7 55.0----
2024-07-18 04:18 amSSW 7.0 8.9----30.09- 54.9 55.0----
2024-07-18 04:12 amSSW 5.1 6.0----30.09- 55.0 54.9----
2024-07-18 04:06 am S 5.1 6.0----30.09- 54.9 54.9----
2024-07-18 04:00 amSSW 4.1 6.0----30.09+0.00 54.9 54.7----
2024-07-18 03:54 amSSW 4.1 6.0----30.09- 55.0 54.7----
2024-07-18 03:48 amSSW 5.1 6.0----30.09- 55.0 54.7----
2024-07-18 03:42 amSSW 5.1 8.0----30.09- 55.0 54.7----
2024-07-18 03:36 amSSW 5.1 8.0----30.09- 54.9 54.7----
2024-07-18 03:30 am S 4.1 7.0----30.09- 54.9 54.7----
2024-07-18 03:24 amSSW 4.1 7.0----30.09- 54.9 55.0----
2024-07-18 03:18 am S 4.1 6.0----30.09- 54.9 55.2----
2024-07-18 03:12 amSSW 5.1 6.0----30.09- 54.7 55.6----
2024-07-18 03:06 am S 4.1 6.0----30.09- 54.9 54.9----
2024-07-18 03:00 amSSW 4.1 7.0----30.09+0.00 54.9 54.7----
2024-07-18 02:54 amSSW 6.0 8.9----30.09- 55.0 54.3----
2024-07-18 02:48 am S 6.0 8.9----30.09- 55.0 54.7----
2024-07-18 02:42 amSSW 5.1 8.9----30.09- 55.0 55.2----
2024-07-18 02:36 am S 6.0 8.0----30.09- 55.0 55.2----
2024-07-18 02:30 am S 2.9 8.9----30.09- 55.0 54.9----
2024-07-18 02:24 am S 5.1 8.0----30.09- 55.0 55.0----
2024-07-18 02:18 am S 5.1 8.0----30.09- 55.2 54.7----
2024-07-18 02:12 amSSW 5.1 8.0----30.09- 55.2 54.5----
2024-07-18 02:06 amSSW 6.0 8.0----30.09- 55.4 54.1----
2024-07-18 02:00 am S 5.1 8.9----30.09+0.00 55.4 54.5----
2024-07-18 01:54 amSSW 6.0 9.9----30.09- 55.4 54.7----
2024-07-18 01:48 am S 6.0 8.9----30.09- 55.4 54.5----
2024-07-18 01:42 am S 5.1 11.1----30.09- 55.4 54.7----
2024-07-18 01:36 am S 7.0 9.9----30.09- 55.4 54.7----
2024-07-18 01:30 am S 6.0 8.9----30.09- 55.6 54.5----
2024-07-18 01:24 am S 4.1 8.0----30.09- 55.6 54.1----
2024-07-18 01:18 am S 7.0 8.9----30.09- 55.8 54.0----
2024-07-18 01:12 am S 5.1 8.0----30.09- 55.6 53.6----
2024-07-18 01:06 am S 7.0 11.1----30.09- 55.6 53.4----
2024-07-18 01:00 am S 6.0 9.9----30.09+0.00 55.4 52.9----
2024-07-18 12:54 am S 6.0 8.9----30.09- 55.4 52.7----
2024-07-18 12:48 am S 7.0 8.9----30.09- 55.4 52.3----
2024-07-18 12:42 am S 7.0 11.1----30.09- 55.4 52.0----
2024-07-18 12:36 am S 6.0 9.9----30.09- 55.4 52.0----
2024-07-18 12:30 am S 7.0 8.9----30.09- 55.4 52.0----
2024-07-18 12:24 am S 5.1 8.0----30.09- 55.4 52.0----
2024-07-18 12:18 am S 7.0 8.9----30.09- 55.4 52.0----
2024-07-18 12:12 am S 5.1 7.0----30.09- 55.4 52.0----
2024-07-18 12:06 am S 5.1 8.0----30.08- 55.2 52.0----
2024-07-18 12:00 am S 5.1 8.0----30.08+0.01 55.2 52.0----
2024-07-17 11:54 pm S 5.1 8.0----30.08- 55.2 52.0----
2024-07-17 11:48 pm S 6.0 8.0----30.08- 55.4 51.8----
2024-07-17 11:42 pm S 4.1 8.0----30.08- 55.4 51.8----
2024-07-17 11:36 pm S 5.1 8.0----30.08- 55.4 51.6----
2024-07-17 11:30 pm S 5.1 8.0----30.08- 55.4 51.6----
2024-07-17 11:24 pm S 6.0 8.0----30.08- 55.6 51.6----
2024-07-17 11:18 pm S 6.0 8.0----30.09- 55.8 51.6----
2024-07-17 11:12 pm S 6.0 9.9----30.08- 55.8 51.4----
2024-07-17 11:06 pm S 5.1 8.0----30.08- 55.8 51.4----
2024-07-17 11:00 pm S 5.1 8.0----30.08+0.01 55.8 51.4----
2024-07-17 10:54 pm S 6.0 7.0----30.08- 55.8 51.4----
2024-07-17 10:48 pm S 5.1 8.0----30.08- 55.8 51.4----
2024-07-17 10:42 pm S 4.1 7.0----30.08- 55.8 51.3----
2024-07-17 10:36 pm S 6.0 7.0----30.09- 55.8 51.3----
2024-07-17 10:30 pm S 5.1 7.0----30.09- 55.8 51.3----
2024-07-17 10:24 pm S 5.1 8.0----30.09- 55.9 51.3----
2024-07-17 10:18 pm S 6.0 8.9----30.09- 55.9 51.3----
2024-07-17 10:12 pm S 7.0 9.9----30.09- 55.9 51.3----
2024-07-17 10:06 pm S 5.1 8.9----30.09- 55.9 51.3----
2024-07-17 10:00 pm S 6.0 9.9----30.09+0.01 55.9 51.1----
2024-07-17 09:54 pm S 5.1 8.9----30.08- 55.9 51.1----
2024-07-17 09:48 pm S 5.1 8.0----30.08- 55.8 51.1----
2024-07-17 09:42 pm S 6.0 9.9----30.08- 55.8 51.1----
2024-07-17 09:36 pm S 5.1 8.9----30.08- 55.8 50.9----
2024-07-17 09:30 pm S 8.0 11.1----30.08- 55.8 50.9----
2024-07-17 09:24 pm S 6.0 8.0----30.08- 55.9 50.9----
2024-07-17 09:18 pm S 6.0 8.9----30.08- 56.1 50.9----
2024-07-17 09:12 pm S 5.1 11.1----30.08- 56.1 50.9----
2024-07-17 09:06 pm S 6.0 9.9----30.07- 56.3 50.9----
2024-07-17 09:00 pm S 6.0 9.9----30.07+0.00 56.3 50.9----
2024-07-17 08:54 pmSSW 6.0 9.9----30.07- 56.3 50.9----